Temp
65 66 64 68 68 68 67 67 67 67 67 67 67 67 67 67 67 67 67 67 67 68 69 69 70 70 70 70 70 71 71 71 71 71 71 71 72 73 74 75 74 79 77
63 65 63 67 67 67 66 66 65 66 66 66 66 66 66 66 66 66 66 66 66 67 68 68 68 68 68 68 68 68 69 69 69 69 69 69 70 72 72 73 74 77 77
63 64 66 65 66 65 65 65 64 65 65 65 65 65 65 65 65 65 65 65 65 66 67 67 67 67 66 66 66 67 68 67 68 68 67 69 70 70 71 72 72 75 76
63 64 66 64 64 64 64 64 64 64 64 64 64 64 64 64 64 64 64 64 64 65 65 65 66 65 65 65 65 65 66 66 65 66 69 69 68 70 70 71 72 73 75
62 63 65 63 63 63 63 63 63 63 63 63 63 63 62 62 62 62 62 62 63 63 64 64 64 63 63 63 63 64 64 64 64 64 67 67 67 68 69 69 70 71 72
61 62 63 62 62 62 62 62 62 61 61 61 61 61 60 60 60 60 60 61 61 62 62 62 62 62 62 62 61 62 62 62 62 62 66 66 64 66 68 68 69 71 70
61 61 63 59 60 60 60 60 60 60 60 59 59 59 58 58 58 58 58 59 60 60 60 60 60 60 60 60 60 59 59 58 60 62 64 64 60 63 66 67 68 70 71
60 59 59 56 56 57 58 58 58 58 58 57 57 56 56 55 55 56 56 57 58 58 58 58 58 58 58 58 57 57 57 56 57 59 62 62 60 62 65 67 68 69 70
59 58 58 59 56 54 55 55 56 56 55 55 54 53 52 52 52 53 53 55 56 56 56 56 56 56 56 56 55 54 54 54 55 60 61 61 61 62 64 66 67 68 69
57 58 57 58 58 57 57 52 52 52 52 52 51 50 50 51 51 51 51 52 53 53 54 54 55 55 54 54 54 53 52 53 57 56 59 57 58 61 63 65 66 67 68
56 56 57 56 57 57 56 53 52 51 50 50 50 49 51 52 51 52 49 49 51 51 51 52 53 53 53 53 53 52 51 55 52 54 56 56 58 60 62 64 65 66 67
54 54 56 56 55 56 58 55 54 54 54 52 51 50 50 51 50 50 50 49 49 49 50 51 51 52 52 54 55 53 53 50 51 51 53 53 57 59 61 63 64 65 66
55 55 53 54 55 55 54 56 55 55 53 52 50 49 50 50 50 50 50 50 50 49 51 51 52 52 51 51 52 52 50 48 47 48 48 51 54 58 60 62 63 64 65
54 54 53 53 54 54 56 56 54 53 52 51 50 48 48 49 48 48 49 49 49 49 49 50 50 50 50 50 51 50 50 48 47 48 46 49 52 56 58 61 62 63 64
54 53 54 54 54 54 54 56 54 52 51 50 49 48 47 47 46 47 48 48 48 49 48 48 48 49 49 50 50 50 49 47 46 45 44 47 52 54 57 59 60 61 62
54 54 54 53 53 53 53 52 52 52 51 50 49 47 46 45 45 46 46 47 47 47 47 48 47 47 48 49 49 49 48 45 42 42 44 46 50 52 54 55 57 59 60
55 54 53 52 52 52 51 52 52 50 50 48 48 47 45 44 44 45 45 45 45 46 46 47 47 47 47 48 47 48 50 45 41 43 43 47 47 48 51 53 55 57 58
55 53 53 53 51 51 51 52 52 50 49 48 47 47 44 43 43 44 44 44 43 45 45 44 45 44 45 45 45 46 49 47 41 41 42 44 46 46 47 50 52 54 55
55 54 52 51 51 49 49 50 50 48 48 48 47 46 44 43 42 42 43 42 42 43 43 42 43 43 43 43 42 46 48 48 46 46 44 43 44 43 44 47 49 50 53
55 54 53 51 50 49 50 50 51 50 49 48 46 44 42 41 41 41 42 41 41 41 41 41 40 42 42 41 39 44 48 50 49 47 47 43 43 41 44 44 45 48 50
53 52 51 50 50 50 50 49 49 50 49 48 45 42 41 40 39 40 40 40 40 39 39 39 38 37 39 39 38 40 46 49 49 47 47 43 41 40 43 42 43 46 47
51 51 50 50 49 49 49 49 50 49 48 46 44 42 40 39 38 38 37 38 38 38 38 37 35 33 37 38 32 36 36 42 43 47 47 43 39 39 41 41 42 44 46
51 50 49 49 48 48 46 46 46 46 46 47 44 42 40 38 37 36 36 36 37 37 36 36 34 32 29 36 35 30 29 29 35 43 43 41 39 38 40 40 40 41 43
51 51 50 48 46 45 45 45 44 46 45 43 41 41 39 37 36 36 36 36 36 37 36 36 35 32 31 30 33 36 35 34 29 30 40 40 39 38 39 39 38 38 40
50 48 48 46 45 44 44 44 44 42 42 42 41 38 38 37 36 35 35 35 35 36 36 36 33 31 32 31 31 32 32 35 36 31 29 33 37 39 39 39 37 36 36
49 47 46 44 43 42 42 41 41 40 39 40 38 37 37 36 36 35 34 35 36 36 35 36 32 32 33 32 33 34 32 29 31 31 30 32 31 37 39 38 36 35 34
MSLP
1026.11 1026.15 1026.00 1025.13 1024.79 1024.61 1024.47 1024.26 1023.95 1023.57 1023.20 1022.78 1022.41 1022.06 1021.60 1021.14 1020.75 1020.42 1020.06 1019.65 1019.09 1018.59 1018.06 1017.50 1016.92 1016.42 1015.93 1015.39 1014.76 1014.10 1013.55 1013.01 1012.43 1011.88 1011.47 1011.07 1010.55 1009.84 1009.26 1008.58 1008.41 1008.13 1007.99
1026.39 1026.23 1026.01 1025.29 1025.08 1024.84 1024.74 1024.51 1024.21 1023.83 1023.47 1023.05 1022.57 1022.21 1021.85 1021.43 1021.01 1020.61 1020.35 1019.94 1019.43 1018.92 1018.33 1017.77 1017.34 1016.82 1016.30 1015.77 1015.21 1014.51 1013.81 1013.20 1012.63 1012.01 1011.46 1010.91 1010.37 1009.75 1009.32 1008.63 1008.07 1007.81 1007.56
1026.32 1026.21 1025.86 1025.60 1025.33 1025.10 1024.92 1024.67 1024.41 1024.01 1023.59 1023.13 1022.64 1022.39 1022.04 1021.65 1021.25 1020.89 1020.45 1020.06 1019.55 1019.03 1018.47 1017.89 1017.43 1016.93 1016.45 1015.90 1015.45 1014.65 1013.89 1013.43 1012.58 1012.11 1011.43 1010.59 1009.99 1009.73 1009.24 1008.67 1008.04 1007.38 1007.30
1026.45 1026.35 1025.85 1025.86 1025.59 1025.39 1025.18 1024.91 1024.58 1024.17 1023.63 1023.26 1022.94 1022.57 1022.07 1021.67 1021.37 1021.09 1020.73 1020.27 1019.73 1019.11 1018.59 1017.99 1017.35 1016.94 1016.44 1015.89 1015.36 1014.80 1014.00 1013.41 1012.92 1012.06 1011.47 1010.43 1009.96 1009.26 1009.14 1008.59 1007.81 1007.17 1006.80
1026.49 1026.55 1026.21 1026.08 1025.85 1025.61 1025.32 1025.05 1024.73 1024.36 1024.07 1023.89 1023.56 1023.10 1022.74 1022.42 1022.07 1021.74 1021.25 1020.64 1019.97 1019.41 1018.74 1018.08 1017.59 1017.24 1016.59 1016.02 1015.35 1014.87 1014.05 1013.45 1012.86 1012.27 1011.21 1010.41 1009.90 1009.39 1008.75 1008.23 1007.80 1006.93 1006.47
1026.66 1026.64 1026.50 1026.37 1026.17 1025.91 1025.57 1025.31 1025.03 1024.69 1024.52 1024.22 1023.77 1023.53 1023.30 1022.94 1022.59 1022.18 1021.66 1021.06 1020.38 1019.76 1019.07 1018.38 1017.85 1017.18 1016.58 1015.91 1015.45 1014.98 1014.25 1013.60 1012.85 1012.17 1011.11 1010.39 1010.23 1009.15 1008.46 1007.99 1007.23 1006.55 1006.07
1026.64 1026.74 1026.61 1026.78 1026.56 1026.30 1025.93 1025.64 1025.40 1025.05 1024.75 1024.48 1024.23 1024.13 1023.87 1023.57 1023.16 1022.66 1022.07 1021.41 1020.68 1020.02 1019.37 1018.76 1018.07 1017.25 1016.67 1015.81 1015.33 1014.89 1014.38 1013.75 1013.17 1011.75 1010.38 1010.14 1009.99 1009.16 1008.28 1007.69 1006.76 1006.09 1005.48
1026.77 1027.04 1027.05 1027.18 1026.98 1026.67 1026.43 1026.17 1025.77 1025.44 1025.30 1025.08 1024.73 1024.51 1024.13 1023.84 1023.37 1022.99 1022.55 1021.75 1021.04 1020.39 1019.78 1019.03 1018.36 1017.73 1016.93 1016.28 1015.75 1014.94 1014.07 1013.84 1013.11 1011.81 1010.31 1009.92 1009.57 1008.87 1007.92 1006.94 1006.21 1005.49 1004.89
1027.00 1027.11 1027.15 1027.06 1027.14 1027.06 1026.84 1026.66 1026.25 1026.01 1025.74 1025.40 1025.16 1024.77 1024.48 1024.23 1023.74 1023.18 1022.78 1021.91 1021.24 1020.85 1019.94 1019.13 1018.48 1017.62 1016.96 1016.28 1015.81 1015.22 1014.40 1013.70 1012.59 1010.80 1010.21 1009.40 1008.86 1008.29 1007.39 1006.43 1005.68 1004.87 1004.17
1027.07 1027.04 1027.05 1027.02 1026.94 1026.86 1026.82 1026.92 1026.57 1026.34 1026.07 1025.75 1025.47 1025.28 1024.93 1024.22 1023.93 1023.40 1022.72 1022.07 1021.53 1020.69 1019.96 1019.22 1018.29 1017.63 1016.78 1015.85 1015.33 1014.89 1013.96 1012.94 1011.87 1011.22 1010.11 1009.37 1008.57 1007.77 1006.77 1005.81 1005.04 1004.31 1003.54
1027.05 1027.08 1027.12 1027.11 1027.07 1026.98 1026.92 1026.90 1026.66 1026.50 1026.24 1025.91 1025.64 1025.46 1024.79 1024.32 1023.81 1023.36 1022.82 1022.29 1021.56 1020.69 1020.05 1019.33 1018.29 1017.52 1016.72 1015.49 1014.89 1014.10 1013.28 1012.40 1012.02 1010.85 1009.93 1009.02 1007.98 1007.22 1006.12 1005.18 1004.42 1003.61 1002.77
1026.65 1027.00 1027.13 1027.25 1027.27 1027.08 1026.82 1026.85 1026.55 1026.27 1026.08 1026.02 1025.91 1025.53 1025.03 1024.44 1024.10 1023.51 1022.62 1022.27 1021.82 1021.26 1020.05 1019.44 1018.32 1017.34 1016.33 1015.50 1014.70 1013.84 1013.18 1012.88 1011.82 1010.71 1009.78 1008.94 1007.58 1006.64 1005.57 1004.58 1003.86 1002.96 1002.14
1026.46 1026.94 1027.32 1027.31 1027.25 1027.14 1026.98 1026.69 1026.47 1026.36 1026.28 1026.11 1025.93 1025.82 1025.29 1024.71 1024.15 1023.42 1022.80 1022.21 1021.55 1020.85 1019.99 1019.15 1017.96 1017.08 1016.35 1015.69 1014.96 1013.95 1013.41 1012.83 1011.96 1010.67 1009.77 1008.56 1007.26 1006.20 1005.09 1004.01 1003.25 1002.34 1001.46
1026.25 1026.76 1027.11 1027.10 1027.12 1027.08 1026.85 1026.69 1026.63 1026.45 1026.39 1026.31 1026.27 1026.14 1025.45 1024.81 1024.24 1023.83 1023.13 1022.38 1021.69 1021.12 1020.21 1019.09 1018.09 1017.29 1016.39 1015.71 1015.01 1013.86 1012.84 1012.07 1011.25 1010.33 1009.32 1008.19 1006.94 1005.90 1004.53 1003.37 1002.50 1001.59 1000.83
1025.83 1026.40 1026.50 1026.79 1026.86 1027.01 1026.94 1026.83 1026.77 1026.65 1026.62 1026.67 1026.41 1026.30 1025.90 1025.23 1024.69 1023.98 1023.45 1022.60 1022.03 1021.38 1020.51 1019.50 1018.56 1017.60 1016.64 1015.45 1014.64 1013.47 1012.36 1011.72 1010.96 1009.91 1008.87 1007.73 1006.53 1005.39 1004.09 1003.10 1002.18 1001.10 1000.30
1025.45 1025.74 1026.29 1026.67 1026.83 1026.94 1026.99 1027.01 1026.83 1026.76 1026.77 1026.65 1026.63 1026.52 1026.21 1025.69 1025.12 1024.37 1023.56 1022.86 1022.33 1021.81 1021.08 1019.99 1018.99 1017.94 1016.84 1015.43 1014.18 1013.29 1012.25 1011.47 1010.86 1009.68 1008.38 1007.33 1006.20 1005.09 1003.76 1003.12 1001.89 1000.73 1000.15
1024.91 1025.61 1026.25 1026.63 1026.83 1026.81 1026.83 1026.79 1026.82 1026.97 1026.91 1026.86 1026.78 1026.68 1026.41 1026.07 1025.46 1024.76 1023.89 1023.25 1022.75 1022.18 1021.24 1020.16 1019.04 1017.91 1016.86 1015.60 1014.29 1013.05 1011.75 1011.09 1010.70 1009.54 1008.36 1007.23 1006.22 1005.11 1004.08 1002.96 1001.61 1000.28 999.18
1024.84 1025.64 1026.08 1026.29 1026.50 1026.60 1026.71 1026.76 1026.79 1026.86 1026.89 1026.84 1026.84 1026.63 1026.57 1026.29 1025.83 1024.99 1024.22 1023.55 1023.20 1022.24 1021.40 1020.57 1019.30 1018.08 1017.00 1015.85 1014.62 1013.18 1011.58 1010.84 1010.61 1009.79 1008.73 1007.51 1006.25 1005.17 1003.98 1002.61 1001.31 1000.09 998.71
1024.62 1025.21 1025.82 1026.20 1026.31 1026.52 1026.66 1026.74 1026.79 1026.89 1026.81 1026.78 1026.72 1026.70 1026.58 1026.31 1025.92 1025.25 1024.42 1023.91 1023.42 1022.49 1021.72 1021.06 1019.84 1018.77 1017.25 1016.05 1015.18 1013.08 1011.70 1010.48 1009.93 1009.27 1008.40 1007.45 1006.32 1005.32 1003.97 1002.51 1001.14 999.53 998.13
1024.30 1024.85 1025.38 1025.84 1026.13 1026.44 1026.57 1026.57 1026.47 1026.52 1026.62 1026.75 1026.77 1026.78 1026.74 1026.34 1025.92 1025.44 1024.71 1024.13 1023.61 1022.76 1021.95 1021.44 1020.49 1019.32 1017.93 1016.87 1015.58 1013.27 1011.25 1010.14 1009.51 1009.15 1008.16 1007.56 1006.42 1005.22 1003.77 1002.43 1000.97 999.34 997.63
1023.94 1024.65 1025.19 1025.63 1025.94 1026.11 1026.17 1026.10 1026.07 1026.03 1026.29 1026.37 1026.69 1026.91 1026.78 1026.49 1026.05 1025.50 1024.92 1024.27 1023.82 1023.12 1022.59 1021.87 1021.24 1020.13 1018.42 1017.74 1015.59 1013.50 1011.21 1010.05 1009.53 1009.00 1008.29 1007.67 1006.55 1005.42 1003.81 1002.62 1000.99 999.72 997.65
1023.14 1023.93 1024.55 1024.92 1025.41 1025.63 1025.80 1025.97 1026.04 1026.19 1026.26 1026.52 1026.71 1026.70 1026.76 1026.52 1026.22 1025.81 1025.32 1024.59 1024.19 1023.50 1022.91 1022.35 1021.83 1021.02 1019.57 1018.58 1017.36 1014.85 1011.50 1009.87 1009.85 1008.79 1008.29 1007.82 1006.96 1005.60 1004.19 1002.57 1001.45 999.88 997.56
1022.49 1023.31 1024.06 1024.56 1025.05 1025.48 1025.83 1026.07 1026.28 1026.38 1026.33 1026.22 1026.41 1026.37 1026.53 1026.58 1026.23 1026.07 1025.60 1024.97 1024.46 1023.90 1023.17 1022.72 1022.30 1021.77 1020.60 1019.32 1018.65 1017.68 1014.71 1013.02 1010.80 1009.43 1008.68 1008.04 1007.47 1006.09 1004.82 1003.41 1001.80 1000.43 997.88
1021.61 1022.77 1023.64 1024.47 1025.06 1025.51 1025.78 1025.77 1025.82 1025.72 1025.87 1026.39 1026.57 1026.56 1026.55 1026.58 1026.40 1026.28 1025.84 1025.17 1024.60 1024.10 1023.62 1023.17 1022.71 1022.37 1021.48 1020.13 1019.16 1018.41 1017.64 1015.95 1013.67 1010.26 1009.36 1008.68 1007.67 1006.48 1005.16 1003.96 1003.00 1001.30 999.69
1021.09 1022.14 1023.12 1024.02 1024.78 1025.43 1025.74 1025.77 1025.73 1025.85 1026.25 1026.50 1026.57 1026.61 1026.65 1026.62 1026.57 1026.49 1026.05 1025.30 1024.88 1024.32 1023.83 1023.34 1023.12 1022.83 1021.89 1020.93 1019.90 1018.76 1017.66 1016.14 1014.93 1013.55 1011.05 1009.08 1007.67 1007.09 1006.42 1005.50 1004.51 1003.09 1001.12
1020.77 1021.83 1022.86 1023.74 1024.55 1025.26 1025.62 1025.88 1025.86 1025.92 1026.32 1026.30 1026.52 1026.58 1026.65 1026.58 1026.61 1026.62 1026.21 1025.57 1025.12 1024.58 1024.05 1023.51 1023.65 1022.94 1022.10 1021.26 1020.23 1019.13 1018.16 1016.96 1015.37 1014.00 1012.47 1011.09 1009.93 1007.83 1006.91 1006.75 1006.09 1004.79 1003.13
Wind_Speed
5 7 11 11 13 13 14 15 16 17 18 18 19 20 21 22 22 22 23 24 24 25 25 26 26 26 26 26 27 27 26 25 25 25 25 26 26 26 23 21 18 18 19
2 5 10 10 11 12 13 14 15 17 17 18 19 21 21 22 23 23 24 24 24 24 24 25 25 25 25 26 26 26 27 27 26 26 25 24 25 23 24 24 20 19 20
2 3 5 9 11 12 14 15 16 17 18 19 21 21 22 23 23 24 24 24 24 24 25 25 25 25 25 25 27 27 26 28 28 28 27 16 17 24 25 25 26 24 23
3 5 5 9 10 12 13 14 15 17 20 21 22 23 24 25 25 24 24 24 24 25 25 25 26 26 26 26 26 27 27 27 29 27 20 17 17 23 26 27 27 26 25
4 4 7 8 10 11 13 14 15 17 19 19 19 21 22 22 22 23 23 24 25 26 26 27 26 26 26 26 27 28 28 28 28 25 21 17 16 22 26 28 28 26 24
5 3 7 8 10 11 12 14 15 16 17 18 19 20 20 20 20 21 22 23 24 24 25 26 27 27 28 27 27 27 27 28 27 18 18 19 20 24 26 28 29 28 25
6 5 7 8 9 11 12 13 14 16 16 17 18 18 19 19 20 21 21 22 23 24 25 25 25 26 28 28 28 27 26 27 23 19 18 17 16 28 29 30 28 30 29
6 5 4 6 7 9 11 12 14 15 16 17 18 18 18 18 18 20 19 21 23 24 24 25 24 24 25 25 27 29 27 26 21 19 18 15 23 27 29 28 30 30 27
5 5 4 3 5 7 11 12 13 15 15 16 16 16 15 15 16 18 18 21 24 23 24 25 25 25 25 26 24 24 26 27 19 13 15 13 22 27 30 30 31 30 30
6 5 4 4 4 5 6 11 12 13 13 14 14 16 14 14 16 17 18 21 22 24 24 24 25 25 26 26 25 25 25 26 15 17 14 10 26 28 30 31 31 31 31
5 4 3 4 4 4 5 5 6 8 10 11 12 14 11 9 12 14 15 20 22 22 24 24 25 25 24 23 24 25 25 11 16 12 11 23 27 29 31 30 30 30 32
7 5 4 4 4 2 3 5 5 5 6 8 9 11 8 10 10 12 14 18 20 21 21 23 22 22 20 14 13 18 11 16 14 13 12 28 30 31 31 30 31 30 31
7 5 4 4 3 2 3 3 3 4 4 5 8 10 9 8 9 9 8 9 11 16 11 15 15 12 17 14 14 14 14 14 10 11 15 28 31 31 31 29 31 29 28
9 7 6 4 3 2 1 3 4 4 4 5 7 11 9 7 9 9 8 10 10 10 14 13 11 15 17 17 18 18 18 15 10 10 13 27 30 30 29 27 29 26 26
10 8 7 6 4 2 1 2 3 4 4 5 6 8 8 8 9 9 9 9 10 11 12 13 14 14 16 16 17 18 18 16 15 10 8 26 26 27 26 26 29 24 25
11 11 8 7 5 3 2 3 3 3 4 5 5 7 9 8 9 9 9 10 10 11 12 12 13 14 14 15 17 18 18 12 14 14 11 11 25 25 25 27 27 27 27
12 10 8 7 6 5 4 2 2 4 4 5 5 7 10 10 10 11 9 10 11 11 15 13 13 13 14 14 18 17 15 12 13 13 14 10 11 24 24 26 27 28 29
12 11 9 6 6 5 4 2 2 3 4 4 5 6 10 10 11 10 9 9 11 11 11 12 13 13 14 15 16 16 14 11 12 14 13 13 11 9 17 25 27 28 29
12 11 10 8 7 5 5 3 2 3 3 4 5 6 10 10 11 10 8 9 12 10 10 12 13 14 14 15 16 16 14 11 8 12 12 17 14 15 11 20 26 27 30
13 12 10 7 7 5 3 3 3 2 1 3 4 6 9 8 10 10 8 10 10 9 10 11 14 14 14 15 17 16 12 10 7 12 13 12 14 18 14 15 13 15 31
14 13 11 9 7 5 4 4 3 1 0 2 5 7 8 9 10 10 8 9 10 10 12 13 12 17 13 14 14 15 13 13 15 14 12 13 16 17 15 14 11 11 14
17 15 13 11 9 6 4 2 1 0 1 2 3 5 7 9 9 9 10 9 11 9 12 13 13 12 12 13 11 15 11 10 14 11 11 13 17 14 13 16 16 17 16
18 16 14 12 10 7 6 4 3 3 3 1 4 4 6 8 9 10 10 9 9 9 9 11 12 14 11 12 16 8 10 10 18 13 16 13 18 12 12 12 18 18 20
19 16 14 12 10 7 7 5 4 1 0 2 3 4 5 7 9 9 9 9 9 8 10 10 10 10 11 11 10 10 11 12 11 14 12 14 16 14 15 12 14 18 20
19 17 15 13 11 8 6 5 4 4 2 1 2 5 6 6 7 9 10 9 9 7 10 11 11 12 9 9 9 10 11 11 12 11 14 18 16 12 9 11 13 13 18
17 16 15 14 12 9 8 6 5 5 3 1 3 4 4 5 5 9 10 9 9 9 10 10 10 11 11 10 10 11 10 10 12 12 13 14 15 12 7 11 11 12 15
Wind_Direction
33 352 344 357 33 34 31 29 27 24 24 24 24 22 20 20 18 15 11 7 3 360 357 354 352 347 341 340 336 331 331 326 327 326 324 320 313 302 296 286 264 253 244
334 353 345 17 33 35 31 31 28 27 25 25 27 24 22 20 16 14 10 6 3 359 355 353 350 346 342 339 335 331 327 323 324 320 320 317 307 303 297 296 271 253 253
76 15 7 26 36 33 30 29 27 26 25 27 27 24 22 20 17 12 8 4 1 357 354 352 348 345 343 339 333 327 325 322 317 317 316 307 305 303 299 295 293 258 248
71 31 30 34 39 36 33 31 30 29 29 26 24 21 19 17 13 10 5 0 358 356 353 351 349 345 341 337 333 328 322 319 317 317 308 305 302 294 296 293 286 284 249
107 43 61 46 43 39 36 35 34 34 32 29 26 24 20 16 11 7 4 358 356 353 351 349 346 342 341 337 333 327 323 317 316 313 305 301 299 296 293 294 292 283 267
122 84 76 49 44 41 38 38 37 37 33 29 28 24 20 15 10 6 2 357 355 352 348 346 343 341 338 337 333 327 322 320 315 307 303 303 302 291 291 294 290 284 282
136 113 86 55 44 40 40 37 37 36 32 29 27 22 18 14 11 6 0 356 354 352 348 344 341 341 335 333 333 329 325 323 314 303 298 295 296 297 292 288 286 281 274
132 122 110 80 53 49 43 38 37 34 30 27 23 19 15 12 9 6 358 356 355 352 348 345 342 337 335 332 328 327 328 318 310 301 292 298 295 290 288 291 290 285 280
134 124 114 113 89 61 44 37 36 33 30 28 22 16 9 7 4 2 357 358 356 348 347 347 340 338 335 332 329 321 320 318 311 290 299 295 296 294 292 289 289 284 281
139 125 104 94 85 62 47 37 35 30 25 22 17 10 3 4 359 357 357 358 349 349 347 344 342 338 336 332 326 322 322 313 316 308 292 291 294 296 292 289 291 289 285
142 133 103 80 69 62 53 46 33 22 24 19 10 6 0 359 355 349 352 350 346 347 345 340 340 338 335 329 326 327 325 321 317 302 298 292 293 297 295 289 291 286 279
166 148 117 92 69 68 49 33 17 18 19 19 10 3 359 354 354 346 353 348 345 341 338 337 337 336 338 333 325 327 323 316 310 306 302 299 294 297 295 293 292 292 285
165 150 132 131 119 57 45 14 12 21 13 9 12 4 355 354 353 352 348 347 342 341 337 335 339 341 336 331 323 322 317 312 304 301 297 297 296 299 294 292 292 293 288
174 155 152 157 127 102 42 26 25 20 12 13 9 6 357 356 353 350 347 345 343 338 335 339 336 334 333 325 322 320 318 316 306 296 295 297 295 297 295 300 296 298 295
175 165 172 164 152 126 68 38 33 24 22 11 9 11 0 353 352 347 343 345 341 339 336 335 336 332 327 325 322 323 324 316 313 307 297 298 308 307 308 308 301 314 305
179 181 165 163 160 154 110 58 35 25 17 17 13 6 4 354 350 346 342 347 344 339 334 333 332 331 327 328 324 327 322 327 314 315 302 298 316 318 324 314 312 323 314
188 174 169 163 161 163 141 115 62 34 20 18 7 5 4 359 350 343 344 347 348 337 334 333 334 336 329 328 327 327 322 328 320 316 327 311 327 332 318 323 320 322 318
178 176 172 171 171 168 157 150 88 50 33 20 7 357 1 356 352 340 345 349 344 341 339 340 337 337 334 332 330 325 327 325 328 331 318 313 331 331 319 322 322 319 318
178 173 172 173 179 173 172 163 116 73 41 25 8 2 358 351 349 342 344 347 345 342 344 341 337 337 334 337 330 320 324 321 328 332 333 337 331 328 326 320 321 324 323
181 178 171 174 178 177 178 188 191 171 72 22 16 8 353 351 350 346 343 350 348 342 345 344 341 338 337 342 326 325 313 326 340 342 343 336 332 333 326 324 320 325 321
182 179 178 176 177 188 193 208 217 232 253 21 13 3 357 355 358 349 347 349 351 347 343 350 351 338 341 346 327 330 324 329 3 335 338 339 336 330 327 329 334 323 313
183 184 181 183 179 183 187 188 233 251 146 9 360 4 6 360 360 354 351 352 351 342 346 355 357 341 336 348 336 322 338 337 339 347 338 338 338 330 334 344 343 335 332
188 185 186 181 178 177 174 169 168 181 195 219 0 358 4 1 7 0 351 355 350 347 348 354 355 349 337 339 351 347 335 343 325 353 345 342 335 330 344 346 349 343 347
189 182 183 176 177 174 177 175 180 142 20 35 350 347 356 9 9 358 353 0 354 348 351 352 348 345 344 340 338 349 335 317 333 324 342 338 339 339 353 356 353 348 354
182 181 177 174 176 171 171 172 164 138 112 57 0 346 6 9 11 3 357 359 357 354 349 352 349 345 343 335 337 332 332 330 339 328 325 338 338 343 3 359 357 354 350
179 176 174 174 174 169 169 164 154 137 129 91 17 7 7 9 8 6 354 1 358 356 351 353 345 342 343 342 338 340 340 334 339 337 330 338 331 328 360 11 4 6 355